Showing default

FLOCK 4Q 31, 58285

Orbit data source: Space-Track

FLOCK 4Q 31, 58285 is a payload satellite owned by Planet (US) in SSO that was launched on Sat, 11 Nov 2023 UTC via an FALCON 9 launch vehicle from the Air Force Western Test Range (AFWTR). Payloads include a variety of satellites, spacecraft, and rockets equipped with specific instruments for various scientific and technological missions. These include communications satellites like Starlink; space stations such as the ISS; scientific satellites like the Hubble; Earth observation satellites from companies like Planet Labs, Umbra, and HawkEye 360; GPS; miniature CubeSats for education and research; and military/defense satellites.

Loading next visibility...
FLOCK 4Q 31 details
Identifier
58285, 2023-174AF
Orbit
SSO
Last TLE update21 hours ago
Origin
Flag of USPlanet (US)
ManufacturerPlanet
MissionOperational Commercial Imaging
Bus & MotorCUBESAT 3U, Unknown motor
Mass5.7 kg wet, 5.7 kg dry
Launch date (UTC)
2023-11-11 (1 year ago)
Launch vehicle
FALCON 9
Launch site
Air Force Western Test Range (AFWTR)
Object type
Payload
Rocket body
Debris
Shape & HBRBox + 2 Pan, 0.3 m
Radar Cross Section0.035 m², Medium (>0.1 m² and < 1m²)

Expand to show TLE details & history

TLE from 21 hours ago
0 FLOCK 4Q 31
1 58285U 23174AF  24355.76764631  .00017441  00000-0  65422-3 0  9993
2 58285  97.4426  69.3653 0009156 301.6845  58.3500 15.27256341 62120
Epoch: 2024-12-20T18:25Z
Definitive object data (Epoch: 2024-12-20T18:25:24.641Z)
Latitude-0.00006°
Longitude63.18421°
Altitude483.824 km
Speed7.625 km/s
True Right ascension04h 37m 27s
True Declination0° 00' 00"
Sunlit
Object was in full shadow at TLE epoch
Visualization TLE readout
Latitude0.52756°
Longitude-115.86511°
Altitude490.02 km
Speed7.618 km/s
Apparent Right ascension19h 33m 18s
Apparent Declination-48° 08' 36"
Sunlit
Object is in daylight
Visualization observer readout
Local Sidereal Time14:41:15
Azimuth137.496° SSE
Elevation-19.172°
Doppler factor1
Orbital elements
Apogee altitude487.256 km
Perigee altitude474.696 km
Semi-major axis6,859.113 km
Eccentricity0.0009156
Inclination97.4426°
RAAN69.3653°
Arg. of periapsis301.6845°
True anomaly58.43937°
Mean anomaly58.35°
Eccentric anomaly58.39468°
Mean motion3.82068 °/min
BSTAR0.00065422
Orbital period94.22 mins
Loading maneuver chart data...
Loading historical data...
Loading historical data...
Loading historical data...
Loading historical data...
Loading historical data...
Loading historical data...
Loading historical data...

FLOCK 4Q 31 Visibility forecast

Observer location: undefined°, undefined

Span
Click to sort rows by Start time (UTC) header in descending order
Start Az.
Max El. time (UTC)
Max El. Az.
Max El.
End time (UTC)
End Az.
5 mins2024-12-21 18:34:55.848Z336.727° NNW2024-12-21 18:36:55.848Z282.317° WNW27.351°2024-12-21 18:39:55.848Z224.889° SW
5 mins2024-12-22 05:09:55.848Z163.346° S2024-12-22 05:11:55.848Z3.104° NNE43.302°2024-12-22 05:14:55.848Z349.437° N
|